Regional Weather Roundup
Issued by NWS Portland, ME

Home | Current Version | Previous Version | Text Only | Print | Product List | Glossary On
Versions: 1 2 3 4 5 6 7 8 9 10 11 12 13 14 15 16 17 18 19 20 21 22 23 24 25 26 27 28 29 30 31 32 33 34 35 36 37 38 39 40 41 42 43 44 45 46 47 48 49 50
000
ASUS41 KGYX 270410
RWRGYX
WEATHER ROUNDUP FOR MAINE AND NEW HAMPSHIRE
NATIONAL WEATHER SERVICE GRAY ME
1100 PM EST WED NOV 26 2014

MEZ002-005-006-010-012-015-018-020-021-024-026-027-029-270500-
MAINE

CITY           SKY/WX    TMP DP  RH WIND       PRES   REMARKS
PORTLAND       SNOW      33  31  92 N16G25    29.76F VSB 1/2
SANFORD        CLOUDY    30  28  93 N20G26    29.75F WCI  18
BAR HARBOR     CLOUDY    34  32  93 N23G38    29.74F
WISCASSET      LGT SNOW  33  31  92 N9G18     29.77F VSB 1
ROCKLAND       CLOUDY    34  32  93 N22G32    29.73F
FRYEBURG       LGT SNOW  31  29  92 NE10      29.81F FOG
LEWISTONAUBURN CLOUDY    30  28  93 N23G31    29.78F VSB 1   WCI  17
AUGUSTA        LGT SNOW  30  29  96 N20G32    29.79F VSB 3/4 WCI  17
WATERVILLE     CLOUDY    30  27  86 N20G25    29.79F VSB 1   WCI  18
BANGOR         SNOW      31  30  96 N17G26    29.82F VSB 1/2 WCI  19
GREENVILLE       N/A     26  22  84 N16G25    29.81F WCI  14
MILLINOCKET    SNOW      29  26  89 N14       29.94F VSB 1/2 WCI  18
HOULTON        SNOW      28  26  92 N15       29.93F VSB 1/2 WCI  16
PRESQUE ISLE   CLOUDY    28  23  80 N13       29.99F WCI  18
FRENCHVILLE    LGT SNOW  23  21  92 N13G18    30.02F VSB 1   WCI  11
CARIBOU        LGT SNOW  26  23  88 N16       30.00F VSB 3/4 WCI  14
$$

NHZ002-005-008-009-011-012-014-270500-
NEW HAMPSHIRE

CITY           SKY/WX    TMP DP  RH WIND       PRES   REMARKS
PORTSMOUTH     FRZ RAIN  32  30  91 N18G31    29.72F FOG
ROCHESTER      MIX PCPN  31  29  92 N14G23    29.74F FOG
NASHUA         LGT SNOW  34  32  93 N5        29.76F FOG
MANCHESTER     LGT SNOW  32  30  92 N17G24    29.75S FOG
CONCORD        NOT AVBL
LACONIA        CLOUDY    32  30  93 NE10      29.76F
PLYMOUTH         N/A    N/A N/A N/A MISG        N/A
BERLIN         LGT SNOW  29  26  89 VRB5      29.83F FOG
WHITEFIELD     LGT SNOW  30  27  88 N9        29.84F FOG
JAFFREY        LGT SNOW  31  29  92 VRB7      29.74S FOG
LEBANON        LGT SNOW  31  28  89 VRB6      29.83F VSB 1
MT WASHINGTON  SNOW      16  16 100 NE40        N/A  VSB 0   WCI  -7
$$

VTZ005-007-008-270500-
VERMONT

CITY           SKY/WX    TMP DP  RH WIND       PRES   REMARKS
ST JOHNSBURY     N/A     30  27  88 MISG      29.86F
MONTPELIER     LGT SNOW  27  25  92 N9G18     29.91F VSB 3/4
BURLINGTON     LGT SNOW  29  26  89 N14G20    29.96F FOG     WCI  18
$$

MAZ007-012-024-CTZ003-RIZ002-NYZ038-NYZ072-270500-
SOUTHERN NEW ENGLAND AND NY

CITY           SKY/WX    TMP DP  RH WIND       PRES   REMARKS
BOSTON         LGT SNOW  33  31  92 N21G29    29.69F FOG
WORCESTER      LGT SNOW  30  29  96 N16G26    29.68S FOG     WCI  19
NANTUCKET      LGT RAIN  48  46  93 N23       29.43F FOG
PROVIDENCE     LGT SNOW  34  31  88 N22G32    29.64S FOG
HARTFORD       LGT SNOW  35  31  85 N16G24    29.74S FOG
ALBANY         LGT SNOW  31  28  89 N12       29.91S FOG
NEW YORK CITY  FLURRIES  36  32  85 N21G29    29.80S
$$

ANZ081-ANZ082-ANZ150-NHZ014-MEZ023>029-270500-
COASTAL MARINE OBSERVATIONS

STATION/POSITION TIME  TEMP    WIND        PRES    WAVE
                       AIR SEA DIR/SP/G            HT/PER
                 (UTC) (F)     (DEG/KT/KT) (MB)    (FT/S)
MOUNT DESERT ROC 0400   39                 1002.2F
MATINICUS ROCK   0300           30/ 36/ 43 1005.2F
PORTLAND WX BUOY 0350   36 50   20/ 29/ 37 1005.9F   8/ 8
WELLS            0300   32 40   30/ 17/ 24 1007.3F
ISLE OF SHOALS   0300   34      10/ 38/ 41 1005.7F
JEFFREYS LEDGE   0321      51                N/A    15/ 8
CASHES LEDGE BUO 0350   44 50   40/ 33/ 39 1000.4F  16/ 8
$$

.............KEY..............
   WCI - WIND CHILL
   TC  - TEMPERATURE IN CELSIUS
   VSB - VISIBILITY IN MILES
   HX  - HEAT INDEX
   FAIR- INDICATES FEW OR NO CLOUDS BELOW 12,000 FT, WITH NO
         SIGNIFICANT WEATHER AND/OR OBSTRUCTIONS TO VISIBILITY.





USA.gov is the U.S. government's official web portal to all federal, state and local government web resources and services.